Starlink 3709

operational
NORAD ID: 52102 Int'l Des: 2022-029 Owner: SPXS Country: US Constellation: starlink
LEOCIRCULAR

关于 Starlink 3709

正在加载描述...

实时位置

正在加载3D地球...

即将过境

高度历史

Altitude vs Time

uPlot chart will show altitude changes over time

两行轨道根数

1 52102U 22029Q 26036.73640497 -.00002373 00000-0 -13103-3 0 9990
2 52102 53.2161 222.5663 0001525 96.2751 263.8415 15.08839865215964
Epoch: Feb 5, 2026 • Age: 14 hours

当前状态

高度 553.7 km
速度 7.58 km/s
星下点 -39.94°S, 169.24°W
发射日期 Mar 19, 2022
运行时间 3.8 years
类型 internet

技术详情

分类 Payload
质量 297.00 kg
干质量 275.00 kg
总质量 297.00 kg
长度 0.20 m
直径 2.80 m
跨度 9.00 m
形状 Box + pan
制造商 SPXS
平台类型 Starlink
阶段状态 In Orbit
所有者/国家 SPXS/US

大型星座

Loading constellations...